Time,TemperatureF,DewpointF,PressureIn,WindDirection,WindDirectionDegrees,WindSpeedMPH,WindSpeedGustMPH,Humidity,HourlyPrecipIn,Conditions,Clouds,dailyrainin,SoftwareType,DateUTC
2013-06-14 09:01:00,66.0,55.5,30.01,ESE,113,11.1,11.1,69,0.00,,,0.00,WUHU216HW,2013-06-14 14:01:00,
2013-06-14 09:06:00,66.0,55.5,30.01,ESE,113,11.1,11.1,69,0.00,,,0.00,WUHU216HW,2013-06-14 14:06:00,
2013-06-14 09:11:00,65.1,55.8,30.01,ESE,113,8.6,11.1,72,0.00,,,0.00,WUHU216HW,2013-06-14 14:11:00,
2013-06-14 09:16:00,64.7,55.5,30.01,ESE,113,10.0,10.0,72,0.00,,,0.00,WUHU216HW,2013-06-14 14:16:00,
2013-06-14 09:21:00,64.7,55.9,30.01,SE,135,6.6,10.0,73,0.00,,,0.00,WUHU216HW,2013-06-14 14:21:00,
2013-06-14 09:26:00,64.7,55.9,30.01,ESE,113,7.3,10.0,73,0.00,,,0.00,WUHU216HW,2013-06-14 14:26:00,
2013-06-14 09:31:00,64.5,55.7,30.01,ESE,113,7.8,7.8,73,0.00,,,0.00,WUHU216HW,2013-06-14 14:31:00,
2013-06-14 09:36:00,64.5,56.1,30.01,SSE,158,6.1,7.8,74,0.00,,,0.00,WUHU216HW,2013-06-14 14:36:00,
2013-06-14 09:41:00,64.5,56.1,30.02,East,81,3.7,7.8,74,0.00,,,0.00,WUHU216HW,2013-06-14 14:41:00,
2013-06-14 09:46:00,64.5,56.1,30.02,SE,135,6.1,6.1,74,0.00,,,0.00,WUHU216HW,2013-06-14 14:46:00,
2013-06-14 09:51:00,64.9,56.4,30.02,ESE,113,0.3,6.1,74,0.00,,,0.00,WUHU216HW,2013-06-14 14:51:00,
2013-06-14 09:56:00,65.3,56.4,30.02,SE,135,6.4,6.4,73,0.00,,,0.00,WUHU216HW,2013-06-14 14:56:00,
2013-06-14 10:01:00,65.4,56.5,30.02,SE,135,3.9,6.4,73,0.00,,,0.00,WUHU216HW,2013-06-14 15:01:00,
2013-06-14 10:06:00,65.4,56.5,30.01,SE,135,4.1,6.6,73,0.00,,,0.00,WUHU216HW,2013-06-14 15:06:00,
2013-06-14 10:11:00,65.1,56.2,30.01,ESE,113,4.6,8.9,73,0.00,,,0.00,WUHU216HW,2013-06-14 15:11:00,
2013-06-14 10:16:00,64.9,56.4,30.01,East,90,0.0,8.9,74,0.00,,,0.00,WUHU216HW,2013-06-14 15:16:00,
2013-06-14 10:21:00,64.7,56.2,30.00,ENE,68,8.9,8.9,74,0.00,,,0.00,WUHU216HW,2013-06-14 15:21:00,
2013-06-14 10:26:00,64.2,56.1,29.98,SE,135,12.5,12.5,75,0.00,,,0.00,WUHU216HW,2013-06-14 15:26:00,
2013-06-14 10:31:00,64.5,56.4,29.98,ENE,68,15.0,15.0,75,0.00,,,0.00,WUHU216HW,2013-06-14 15:31:00,
2013-06-14 10:36:00,64.7,57.0,29.98,SE,135,8.0,15.0,76,0.00,,,0.00,WUHU216HW,2013-06-14 15:36:00,
2013-06-14 10:41:00,65.3,57.1,29.97,ESE,113,3.6,8.0,75,0.00,,,0.00,WUHU216HW,2013-06-14 15:41:00,
2013-06-14 10:46:00,65.8,57.1,29.97,East,90,8.0,8.0,74,0.00,,,0.00,WUHU216HW,2013-06-14 15:46:00,
2013-06-14 10:51:00,65.8,56.9,29.97,ENE,68,5.5,8.0,73,0.00,,,0.00,WUHU216HW,2013-06-14 15:51:00,
2013-06-14 10:56:00,66.0,56.6,29.98,South,169,4.8,8.0,72,0.00,,,0.00,WUHU216HW,2013-06-14 15:56:00,
2013-06-14 11:01:00,66.5,57.2,29.98,ESE,113,8.9,8.9,72,0.00,,,0.00,WUHU216HW,2013-06-14 16:01:00,
2013-06-14 11:06:00,67.6,57.9,29.98,ESE,113,1.6,8.9,71,0.00,,,0.00,WUHU216HW,2013-06-14 16:06:00,
2013-06-14 11:11:00,68.7,58.5,29.98,SSE,158,12.0,12.0,70,0.00,,,0.00,WUHU216HW,2013-06-14 16:11:00,
2013-06-14 11:16:00,71.4,59.8,29.99,SE,135,7.8,12.0,67,0.00,,,0.00,WUHU216HW,2013-06-14 16:16:00,
2013-06-14 11:21:00,73.9,60.5,29.99,SE,135,5.8,10.6,63,0.00,,,0.00,WUHU216HW,2013-06-14 16:21:00,
2013-06-14 11:26:00,75.9,61.0,29.98,SE,133,5.5,10.6,61,0.00,,,0.00,WUHU216HW,2013-06-14 16:26:00,
2013-06-14 11:31:00,76.4,60.5,29.98,South,180,6.4,8.4,58,0.00,,,0.00,WUHU216HW,2013-06-14 16:31:00,
2013-06-14 11:36:00,77.0,61.0,29.98,ENE,68,0.0,6.4,58,0.00,,,0.00,WUHU216HW,2013-06-14 16:36:00,
2013-06-14 11:41:00,77.0,60.2,29.97,ENE,74,3.6,5.3,57,0.00,,,0.00,WUHU216HW,2013-06-14 16:41:00,
2013-06-14 11:46:00,76.2,59.9,29.97,ESE,113,3.0,5.3,57,0.00,,,0.00,WUHU216HW,2013-06-14 16:46:00,
2013-06-14 11:51:00,76.2,60.4,29.97,SE,135,0.0,3.0,58,0.00,,,0.00,WUHU216HW,2013-06-14 16:51:00,
2013-06-14 11:56:00,76.1,60.7,29.97,ENE,75,3.9,5.0,59,0.00,,,0.00,WUHU216HW,2013-06-14 16:56:00,
2013-06-14 12:01:00,77.0,60.5,29.96,SSE,158,9.1,11.4,57,0.00,,,0.00,WUHU216HW,2013-06-14 17:01:00,
2013-06-14 12:06:00,77.0,60.5,29.96,SE,135,5.5,11.4,57,0.00,,,0.00,WUHU216HW,2013-06-14 17:06:00,
2013-06-14 12:11:00,76.8,60.3,29.95,SE,145,12.5,13.9,57,0.00,,,0.00,WUHU216HW,2013-06-14 17:11:00,
2013-06-14 12:16:00,76.2,60.4,29.95,SSE,158,7.5,13.9,58,0.00,,,0.00,WUHU216HW,2013-06-14 17:16:00,
2013-06-14 12:21:00,76.6,60.7,29.95,SSE,158,18.4,18.4,58,0.00,,,0.00,WUHU216HW,2013-06-14 17:21:00,
2013-06-14 12:26:00,76.8,60.8,29.94,NNE,23,9.5,18.4,58,0.00,,,0.00,WUHU216HW,2013-06-14 17:26:00,
2013-06-14 12:31:00,76.8,60.8,29.94,ESE,113,6.1,18.4,58,0.00,,,0.00,WUHU216HW,2013-06-14 17:31:00,
2013-06-14 12:36:00,76.8,60.8,29.94,ESE,113,6.1,9.5,58,0.00,,,0.00,WUHU216HW,2013-06-14 17:36:00,
2013-06-14 12:41:00,76.8,60.8,29.93,East,99,6.5,7.8,58,0.00,,,0.00,WUHU216HW,2013-06-14 17:41:00,
2013-06-14 12:46:00,77.0,61.5,29.92,SE,135,4.8,7.8,59,0.00,,,0.00,WUHU216HW,2013-06-14 17:46:00,
2013-06-14 12:51:00,77.1,61.7,29.92,NE,45,6.4,11.1,59,0.00,,,0.00,WUHU216HW,2013-06-14 17:51:00,
2013-06-14 12:56:00,77.3,61.5,29.93,ESE,113,8.9,20.1,58,0.00,,,0.00,WUHU216HW,2013-06-14 17:56:00,
2013-06-14 13:01:00,77.7,61.7,29.93,ENE,75,2.9,20.1,58,0.00,,,0.00,WUHU216HW,2013-06-14 18:01:00,
2013-06-14 13:06:00,78.4,61.9,29.93,South,180,8.4,8.9,57,0.00,,,0.00,WUHU216HW,2013-06-14 18:06:00,
2013-06-14 13:11:00,78.6,62.4,29.93,SE,135,10.3,10.3,58,0.00,,,0.00,WUHU216HW,2013-06-14 18:11:00,
2013-06-14 13:16:00,78.0,62.0,29.93,SE,145,14.4,15.4,58,0.00,,,0.00,WUHU216HW,2013-06-14 18:16:00,
2013-06-14 13:21:00,78.4,62.9,29.94,South,180,4.8,15.4,59,0.00,,,0.00,WUHU216HW,2013-06-14 18:21:00,
2013-06-14 13:26:00,78.9,62.9,29.93,ESE,113,5.0,13.4,58,0.00,,,0.00,WUHU216HW,2013-06-14 18:26:00,
2013-06-14 13:31:00,79.1,62.6,29.93,East,83,5.0,12.3,57,0.00,,,0.00,WUHU216HW,2013-06-14 18:31:00,
2013-06-14 13:36:00,79.1,63.1,29.93,ENE,68,0.0,14.8,58,0.00,,,0.00,WUHU216HW,2013-06-14 18:36:00,
2013-06-14 13:41:00,79.7,63.6,29.93,SE,135,8.4,14.8,58,0.00,,,0.00,WUHU216HW,2013-06-14 18:41:00,
2013-06-14 13:46:00,79.5,62.9,29.93,East,90,9.8,9.8,57,0.00,,,0.00,WUHU216HW,2013-06-14 18:46:00,
2013-06-14 13:51:00,79.3,62.7,29.92,SE,135,2.8,9.8,57,0.00,,,0.00,WUHU216HW,2013-06-14 18:51:00,
2013-06-14 13:56:00,78.6,62.6,29.92,East,90,3.3,10.6,58,0.00,,,0.00,WUHU216HW,2013-06-14 18:56:00,
2013-06-14 14:01:00,78.6,62.6,29.92,SSE,158,8.4,10.6,58,0.00,,,0.00,WUHU216HW,2013-06-14 19:01:00,
2013-06-14 14:06:00,78.6,62.6,29.91,East,90,5.8,13.4,58,0.00,,,0.00,WUHU216HW,2013-06-14 19:06:00,
2013-06-14 14:11:00,78.0,62.6,29.91,SE,135,17.0,17.0,59,0.00,,,0.00,WUHU216HW,2013-06-14 19:11:00,
2013-06-14 14:16:00,78.0,62.6,29.91,SE,144,3.7,17.0,59,0.00,,,0.00,WUHU216HW,2013-06-14 19:16:00,
2013-06-14 14:21:00,78.0,62.6,29.91,ESE,113,2.8,17.0,59,0.00,,,0.00,WUHU216HW,2013-06-14 19:21:00,
2013-06-14 14:26:00,77.9,62.9,29.91,SSE,147,6.9,8.9,60,0.00,,,0.00,WUHU216HW,2013-06-14 19:26:00,
2013-06-14 14:31:00,78.0,63.1,29.91,SSE,158,7.8,8.9,60,0.00,,,0.00,WUHU216HW,2013-06-14 19:31:00,
2013-06-14 14:36:00,77.9,62.4,29.91,SSE,158,17.3,17.3,59,0.00,,,0.00,WUHU216HW,2013-06-14 19:36:00,
2013-06-14 14:41:00,77.5,62.6,29.91,SE,127,8.1,17.3,60,0.00,,,0.00,WUHU216HW,2013-06-14 19:41:00,
2013-06-14 14:46:00,77.5,63.0,29.91,ESE,113,16.1,16.1,61,0.00,,,0.00,WUHU216HW,2013-06-14 19:46:00,
2013-06-14 14:51:00,77.7,62.7,29.91,SE,135,18.1,18.1,60,0.00,,,0.00,WUHU216HW,2013-06-14 19:51:00,
2013-06-14 14:56:00,77.7,63.2,29.91,South,180,14.8,18.1,60,0.00,,,0.00,WUHU216HW,2013-06-14 19:56:00,
2013-06-14 15:01:00,77.7,63.2,29.91,ENE,68,9.8,14.8,61,0.00,,,0.00,WUHU216HW,2013-06-14 20:01:00,
2013-06-14 15:06:00,77.5,63.0,29.92,SE,135,11.1,14.8,61,0.00,,,0.00,WUHU216HW,2013-06-14 20:06:00,
2013-06-14 15:11:00,77.9,63.2,29.92,ESE,113,10.3,13.1,61,0.00,,,0.00,WUHU216HW,2013-06-14 20:11:00,
2013-06-14 15:16:00,77.9,63.3,29.92,SSE,158,11.4,13.1,61,0.00,,,0.00,WUHU216HW,2013-06-14 20:16:00,
2013-06-14 15:21:00,77.9,63.8,29.91,SSE,158,10.3,14.3,62,0.00,,,0.00,WUHU216HW,2013-06-14 20:21:00,
2013-06-14 15:26:00,78.0,63.5,29.92,SE,133,9.8,14.3,61,0.00,,,0.00,WUHU216HW,2013-06-14 20:26:00,
2013-06-14 15:31:00,78.6,64.1,29.91,SSE,158,12.8,12.8,61,0.00,,,0.00,WUHU216HW,2013-06-14 20:31:00,
2013-06-14 15:36:00,78.9,64.0,29.92,SE,135,13.6,13.6,60,0.00,,,0.00,WUHU216HW,2013-06-14 20:36:00,
2013-06-14 15:41:00,78.9,64.0,29.92,SSE,158,8.8,14.8,60,0.00,,,0.00,WUHU216HW,2013-06-14 20:41:00,
2013-06-14 15:46:00,78.9,64.0,29.92,ESE,113,6.9,14.8,60,0.00,,,0.00,WUHU216HW,2013-06-14 20:46:00,
2013-06-14 15:51:00,78.6,64.1,29.92,SE,135,7.5,8.6,61,0.00,,,0.00,WUHU216HW,2013-06-14 20:51:00,
2013-06-14 15:56:00,78.6,64.1,29.92,SSE,155,7.4,13.4,61,0.00,,,0.00,WUHU216HW,2013-06-14 20:56:00,
2013-06-14 16:01:00,78.6,64.1,29.91,ESE,103,7.2,13.4,61,0.00,,,0.00,WUHU216HW,2013-06-14 21:01:00,
2013-06-14 16:06:00,78.6,64.1,29.91,South,180,8.0,9.5,61,0.00,,,0.00,WUHU216HW,2013-06-14 21:06:00,
2013-06-14 16:11:00,77.9,63.8,29.92,SSE,155,11.0,12.0,62,0.00,,,0.00,WUHU216HW,2013-06-14 21:11:00,
2013-06-14 16:16:00,77.5,63.4,29.93,South,180,10.3,12.0,62,0.00,,,0.00,WUHU216HW,2013-06-14 21:16:00,
2013-06-14 16:21:00,77.0,62.5,29.92,South,180,11.6,17.5,61,0.00,,,0.00,WUHU216HW,2013-06-14 21:21:00,
2013-06-14 16:26:00,76.6,62.6,29.92,SE,135,13.9,17.5,62,0.00,,,0.00,WUHU216HW,2013-06-14 21:26:00,
2013-06-14 16:31:00,76.1,62.5,29.91,SSE,158,3.3,13.9,63,0.00,,,0.00,WUHU216HW,2013-06-14 21:31:00,
2013-06-14 16:36:00,76.1,63.0,29.90,SSE,158,13.5,20.4,64,0.00,,,0.00,WUHU216HW,2013-06-14 21:36:00,
2013-06-14 16:41:00,76.8,63.2,29.88,SSE,158,8.0,20.4,63,0.00,,,0.00,WUHU216HW,2013-06-14 21:41:00,
2013-06-14 16:46:00,77.1,63.1,29.90,South,180,18.1,18.1,62,0.00,,,0.00,WUHU216HW,2013-06-14 21:46:00,
2013-06-14 16:51:00,77.5,63.9,29.88,South,180,12.8,18.1,63,0.00,,,0.00,WUHU216HW,2013-06-14 21:51:00,
2013-06-14 16:56:00,77.5,63.9,29.91,SSW,203,10.3,16.8,63,0.00,,,0.00,WUHU216HW,2013-06-14 21:56:00,
2013-06-14 17:01:00,76.8,63.2,29.91,SSE,158,8.0,16.8,63,0.00,,,0.00,WUHU216HW,2013-06-14 22:01:00,
2013-06-14 17:06:00,76.6,63.5,29.89,SSE,158,3.0,8.0,64,0.00,,,0.00,WUHU216HW,2013-06-14 22:06:00,
2013-06-14 17:11:00,77.0,63.8,29.87,SSE,158,5.8,7.5,64,0.00,,,0.00,WUHU216HW,2013-06-14 22:11:00,
2013-06-14 17:16:00,77.5,63.9,29.88,SSE,158,7.3,7.8,63,0.00,,,0.00,WUHU216HW,2013-06-14 22:16:00,
2013-06-14 17:21:00,78.0,64.4,29.91,SSW,203,7.3,8.0,63,0.00,,,0.00,WUHU216HW,2013-06-14 22:21:00,
2013-06-14 17:26:00,77.7,64.0,29.90,South,180,3.0,8.0,63,0.00,,,0.00,WUHU216HW,2013-06-14 22:26:00,
2013-06-14 17:31:00,77.3,63.7,29.90,SSE,158,6.1,6.6,63,0.00,,,0.00,WUHU216HW,2013-06-14 22:31:00,
2013-06-14 17:36:00,77.3,64.2,29.89,SE,135,0.0,6.1,64,0.00,,,0.00,WUHU216HW,2013-06-14 22:36:00,
2013-06-14 17:41:00,78.0,64.4,29.90,SE,135,0.0,0.0,63,0.00,,,0.00,WUHU216HW,2013-06-14 22:41:00,
2013-06-14 17:46:00,78.4,64.7,29.90,SSE,158,5.0,5.0,63,0.00,,,0.00,WUHU216HW,2013-06-14 22:46:00,
2013-06-14 17:51:00,77.7,64.5,29.90,South,180,0.8,5.0,64,0.00,,,0.00,WUHU216HW,2013-06-14 22:51:00,
2013-06-14 17:56:00,77.9,64.7,29.90,South,180,0.0,2.5,64,0.00,,,0.00,WUHU216HW,2013-06-14 22:56:00,
2013-06-14 18:01:00,78.6,65.4,29.90,SSE,158,3.0,3.0,64,0.00,,,0.00,WUHU216HW,2013-06-14 23:01:00,
2013-06-14 18:06:00,81.3,67.0,29.89,SSE,158,3.9,3.9,62,0.00,,,0.00,WUHU216HW,2013-06-14 23:06:00,
2013-06-14 18:11:00,84.0,68.1,29.90,SSE,158,4.1,4.1,59,0.00,,,0.00,WUHU216HW,2013-06-14 23:11:00,
2013-06-14 18:16:00,86.7,67.7,29.89,South,180,3.6,8.6,54,0.00,,,0.00,WUHU216HW,2013-06-14 23:16:00,
2013-06-14 18:21:00,87.4,67.6,29.89,SSE,148,4.9,8.6,52,0.00,,,0.00,WUHU216HW,2013-06-14 23:21:00,
2013-06-14 18:26:00,87.9,67.6,29.89,SSE,158,3.9,6.9,51,0.00,,,0.00,WUHU216HW,2013-06-14 23:26:00,
2013-06-14 18:31:00,88.5,67.5,29.89,South,180,4.1,6.1,50,0.00,,,0.00,WUHU216HW,2013-06-14 23:31:00,
2013-06-14 18:37:00,88.7,67.7,29.89,SSW,204,6.9,7.3,50,0.00,,,0.00,WUHU216HW,2013-06-14 23:37:00,
2013-06-14 18:41:00,89.2,67.5,29.89,SW,225,1.9,8.0,49,0.00,,,0.00,WUHU216HW,2013-06-14 23:41:00,
2013-06-14 18:46:00,89.6,67.8,29.89,SSW,203,6.1,8.0,49,0.00,,,0.00,WUHU216HW,2013-06-14 23:46:00,
2013-06-14 18:51:00,90.1,67.7,29.89,SSW,203,1.6,6.1,48,0.00,,,0.00,WUHU216HW,2013-06-14 23:51:00,
2013-06-14 18:56:00,90.1,67.7,29.89,SW,225,6.9,7.5,48,0.00,,,0.00,WUHU216HW,2013-06-14 23:56:00,
2013-06-14 19:01:00,89.7,67.4,29.88,South,180,3.6,7.5,48,0.00,,,0.00,WUHU216HW,2013-06-15 00:01:00,
2013-06-14 19:06:00,89.9,67.5,29.89,SSW,192,5.1,6.6,48,0.00,,,0.00,WUHU216HW,2013-06-15 00:06:00,
2013-06-14 19:11:00,89.9,67.5,29.89,South,180,5.0,5.3,48,0.00,,,0.00,WUHU216HW,2013-06-15 00:11:00,
2013-06-14 19:17:00,89.9,67.5,29.88,South,180,5.0,5.0,48,0.00,,,0.00,WUHU216HW,2013-06-15 00:17:00,
2013-06-14 19:22:00,88.5,66.9,29.88,SW,225,4.4,5.0,49,0.00,,,0.00,WUHU216HW,2013-06-15 00:22:00,
2013-06-14 19:27:00,88.5,66.9,29.89,SW,225,4.4,5.0,49,0.00,,,0.00,WUHU216HW,2013-06-15 00:27:00,
2013-06-14 19:32:00,88.5,66.9,29.88,WSW,248,0.0,4.4,49,0.00,,,0.00,WUHU216HW,2013-06-15 00:32:00,
2013-06-14 19:37:00,82.9,66.0,29.88,WSW,248,2.5,4.4,57,0.00,,,0.00,WUHU216HW,2013-06-15 00:37:00,
2013-06-14 19:42:00,84.2,67.3,29.88,WSW,248,0.0,2.5,57,0.00,,,0.00,WUHU216HW,2013-06-15 00:42:00,
2013-06-14 19:47:00,85.6,67.5,29.88,West,270,4.8,4.8,55,0.00,,,0.00,WUHU216HW,2013-06-15 00:47:00,
2013-06-14 19:52:00,85.2,67.2,29.88,West,270,0.0,4.8,55,0.00,,,0.00,WUHU216HW,2013-06-15 00:52:00,
2013-06-14 19:57:00,83.6,65.7,29.88,WSW,248,5.3,5.3,55,0.00,,,0.00,WUHU216HW,2013-06-15 00:57:00,
2013-06-14 20:02:00,83.3,66.4,29.88,WSW,248,3.3,5.3,57,0.00,,,0.00,WUHU216HW,2013-06-15 01:02:00,
2013-06-14 20:07:00,83.3,66.4,29.88,WSW,248,7.3,7.3,57,0.00,,,0.00,WUHU216HW,2013-06-15 01:07:00,
2013-06-14 20:12:00,81.6,64.8,29.89,WSW,248,0.8,7.3,57,0.00,,,0.00,WUHU216HW,2013-06-15 01:12:00,
2013-06-14 20:17:00,80.6,64.7,29.89,West,270,5.5,7.3,59,0.00,,,0.00,WUHU216HW,2013-06-15 01:17:00,
2013-06-14 20:22:00,79.7,64.6,29.89,WNW,293,1.9,5.5,60,0.00,,,0.00,WUHU216HW,2013-06-15 01:22:00,
2013-06-14 20:27:00,79.3,64.7,29.89,WNW,293,2.5,5.5,61,0.00,,,0.00,WUHU216HW,2013-06-15 01:27:00,
2013-06-14 20:32:00,78.6,64.8,29.89,West,270,0.0,2.5,62,0.00,,,0.00,WUHU216HW,2013-06-15 01:32:00,
2013-06-14 20:37:00,77.9,64.2,29.89,West,270,1.4,2.1,63,0.00,,,0.00,WUHU216HW,2013-06-15 01:37:00,
2013-06-14 20:42:00,77.3,63.7,29.89,West,270,0.0,1.9,63,0.00,,,0.00,WUHU216HW,2013-06-15 01:42:00,
2013-06-14 20:47:00,76.4,63.3,29.89,West,270,0.0,0.0,64,0.00,,,0.00,WUHU216HW,2013-06-15 01:47:00,
2013-06-14 20:52:00,75.9,63.2,29.89,West,270,0.0,0.0,65,0.00,,,0.00,WUHU216HW,2013-06-15 01:52:00,
2013-06-14 20:57:00,75.3,63.1,29.89,West,270,0.0,0.0,66,0.00,,,0.00,WUHU216HW,2013-06-15 01:57:00,
2013-06-14 21:02:00,74.8,62.6,29.89,West,270,0.0,0.0,66,0.00,,,0.00,WUHU216HW,2013-06-15 02:02:00,
2013-06-14 21:07:00,73.9,63.1,29.89,WNW,293,0.0,0.0,69,0.00,,,0.00,WUHU216HW,2013-06-15 02:07:00,
2013-06-14 21:12:00,73.7,63.4,29.89,WNW,293,0.0,0.0,70,0.00,,,0.00,WUHU216HW,2013-06-15 02:12:00,
2013-06-14 21:17:00,73.2,63.3,29.90,WNW,293,0.0,0.0,71,0.00,,,0.00,WUHU216HW,2013-06-15 02:17:00,
2013-06-14 21:22:00,73.0,63.1,29.90,WNW,293,1.9,1.9,71,0.00,,,0.00,WUHU216HW,2013-06-15 02:22:00,
2013-06-14 21:27:00,72.6,63.1,29.90,West,270,0.0,1.9,72,0.00,,,0.00,WUHU216HW,2013-06-15 02:27:00,
2013-06-14 21:32:00,72.1,63.0,29.90,WNW,293,0.0,0.0,73,0.00,,,0.00,WUHU216HW,2013-06-15 02:32:00,
2013-06-14 21:37:00,71.7,62.6,29.91,WNW,293,0.0,0.0,73,0.00,,,0.00,WUHU216HW,2013-06-15 02:37:00,
2013-06-14 21:42:00,71.4,62.6,29.91,WNW,293,0.0,0.0,74,0.00,,,0.00,WUHU216HW,2013-06-15 02:42:00,
2013-06-14 21:47:00,71.2,62.8,29.92,West,270,0.0,0.0,75,0.00,,,0.00,WUHU216HW,2013-06-15 02:47:00,
2013-06-14 21:52:00,71.2,62.8,29.92,West,270,0.0,0.0,75,0.00,,,0.00,WUHU216HW,2013-06-15 02:52:00,
2013-06-14 21:57:00,70.8,62.1,29.93,West,270,2.5,2.5,74,0.00,,,0.00,WUHU216HW,2013-06-15 02:57:00,
2013-06-14 22:02:00,70.8,62.1,29.93,West,270,2.5,2.5,74,0.00,,,0.00,WUHU216HW,2013-06-15 03:02:00,
2013-06-14 22:06:00,70.8,62.8,29.93,West,270,2.5,2.5,76,0.00,,,0.00,WUHU216HW,2013-06-15 03:06:00,
2013-06-14 22:11:00,70.8,62.8,29.93,WNW,293,1.0,2.5,76,0.00,,,0.00,WUHU216HW,2013-06-15 03:11:00,
2013-06-14 22:16:00,70.8,62.8,29.94,WNW,293,2.5,2.5,76,0.00,,,0.00,WUHU216HW,2013-06-15 03:16:00,
2013-06-14 22:21:00,70.7,62.7,29.94,NW,315,11.6,11.6,76,0.00,,,0.00,WUHU216HW,2013-06-15 03:21:00,
2013-06-14 22:26:00,70.7,62.7,29.94,NW,315,7.5,11.6,76,0.00,,,0.00,WUHU216HW,2013-06-15 03:26:00,
2013-06-14 22:31:00,70.3,61.9,29.95,NW,304,7.4,11.6,75,0.00,,,0.00,WUHU216HW,2013-06-15 03:31:00,
2013-06-14 22:36:00,69.9,61.6,29.95,NW,315,4.9,7.5,75,0.00,,,0.00,WUHU216HW,2013-06-15 03:36:00,
2013-06-14 22:41:00,69.6,61.2,29.95,NNW,338,3.3,7.3,75,0.00,,,0.00,WUHU216HW,2013-06-15 03:41:00,
2013-06-14 22:46:00,68.9,60.9,29.95,WNW,293,7.8,7.8,76,0.00,,,0.00,WUHU216HW,2013-06-15 03:46:00,
2013-06-14 22:51:00,68.5,60.6,29.95,NW,315,4.4,7.8,76,0.00,,,0.00,WUHU216HW,2013-06-15 03:51:00,
2013-06-14 22:56:00,68.1,60.7,29.95,NW,315,5.3,7.8,77,0.00,,,0.00,WUHU216HW,2013-06-15 03:56:00,
2013-06-14 23:01:00,68.1,60.7,29.96,NW,315,3.6,6.1,77,0.00,,,0.00,WUHU216HW,2013-06-15 04:01:00,
2013-06-14 23:06:00,67.8,60.7,29.96,NNW,338,3.9,6.1,78,0.00,,,0.00,WUHU216HW,2013-06-15 04:06:00,
2013-06-14 23:11:00,67.6,60.4,29.96,NW,315,2.8,6.1,78,0.00,,,0.00,WUHU216HW,2013-06-15 04:11:00,
2013-06-14 23:16:00,67.2,60.2,29.95,NW,315,3.3,7.3,78,0.00,,,0.00,WUHU216HW,2013-06-15 04:16:00,
2013-06-14 23:21:00,67.2,60.6,29.95,NW,315,6.4,7.3,79,0.00,,,0.00,WUHU216HW,2013-06-15 04:21:00,
2013-06-14 23:26:00,66.9,60.2,29.95,NW,315,7.5,8.4,79,0.00,,,0.00,WUHU216HW,2013-06-15 04:26:00,
2013-06-14 23:31:00,66.9,60.2,29.95,North,0,6.9,8.4,79,0.00,,,0.00,WUHU216HW,2013-06-15 04:31:00,
2013-06-14 23:36:00,66.9,60.2,29.95,NNW,338,5.3,6.9,79,0.00,,,0.00,WUHU216HW,2013-06-15 04:36:00,
2013-06-14 23:41:00,66.9,60.2,29.95,NNW,338,4.4,6.9,79,0.00,,,0.00,WUHU216HW,2013-06-15 04:41:00,
2013-06-14 23:46:00,66.9,59.8,29.95,NW,315,5.8,5.8,78,0.00,,,0.00,WUHU216HW,2013-06-15 04:46:00,
2013-06-14 23:51:00,66.7,59.6,29.96,NNW,338,3.9,8.4,78,0.00,,,0.00,WUHU216HW,2013-06-15 04:51:00,
2013-06-14 23:56:00,66.3,59.7,29.95,NW,315,6.6,8.4,79,0.00,,,0.00,WUHU216HW,2013-06-15 04:56:00,